Thief River Falls, MN

1:13 AM CST on December 17, 2017 (GMT -0600)
Thief River Falls Regional

Weather History for KTVF - September, 2013

Change the Weather History Date:

Thursday, September 26, 2013

  Actual Average Record
Temperature  
Mean Temperature 68 °F -  
Max Temperature 78 °F 58 °F 87 °F (1990)
Min Temperature 57 °F 39 °F 24 °F (1984)
Cooling Degree Days 2    
Growing Degree Days 18 (Base 50)    
Moisture  
Dew Point 52 °F    
Average Humidity 59    
Maximum Humidity 72    
Minimum Humidity 42    
Precipitation  
Precipitation 0.00 in - - ()
Sea Level Pressure  
Sea Level Pressure 29.74 in    
Wind  
Wind Speed 14 mph (SE)    
Max Wind Speed 31 mph    
Max Gust Speed 37 mph    
Visibility 10 miles    
Events      
Averages and records for this station are not official NWS values.
T = Trace of Precipitation, MM = Missing Value Source: NWS Daily Summary

Daily Weather History Graph

Daily Weather History Graph

Search for Another Location

Airport or City:

Trip Planner

Search our weather history database for the weather conditions in past years. The results will help you decide how hot, cold, wet, or windy it might be!

Date:

Astronomy

Sep. 26, 2013 Rise Set
Actual Time 7:17 AM CDT 7:13 PM CDT
Civil Twilight 6:46 AM CDT 7:44 PM CDT
Nautical Twilight 6:10 AM CDT 8:20 PM CDT
Astronomical Twilight 5:32 AM CDT 8:57 PM CDT
Moon 11:50 PM CDT (9/26) 2:33 PM CDT (9/26)
Length of Visible Light 12h 58m
Length of Day
11h 56m
Waning Gibbous, 54% of the Moon is Illuminated
Sep 26
Waning Gibbous
Sep 26
Last Quarter
Oct 4
New
Oct 11
First Quarter
Oct 18
Full

Hourly Weather History & Observations

Time (CDT) Temp. Dew Point Humidity Pressure Visibility Wind Dir Wind Speed Gust Speed Precip Events Conditions
12:15 AM 59.0 °F 48.2 °F 67% 29.81 in 10.0 mi ESE 10.4 mph - N/A   Clear
12:35 AM 60.8 °F 48.2 °F 63% 29.81 in 10.0 mi ESE 12.7 mph - N/A   Clear
12:55 AM 60.8 °F 48.2 °F 63% 29.81 in 10.0 mi SE 12.7 mph 18.4 mph N/A   Clear
1:15 AM 60.8 °F 48.2 °F 63% 29.80 in 10.0 mi SE 12.7 mph - N/A   Clear
1:35 AM 60.8 °F 48.2 °F 63% 29.81 in 10.0 mi SE 12.7 mph 19.6 mph N/A   Clear
1:55 AM 60.8 °F 48.2 °F 63% 29.80 in 10.0 mi SE 13.8 mph 20.7 mph N/A   Clear
2:15 AM 60.8 °F 48.2 °F 63% 29.79 in 10.0 mi ESE 15.0 mph 19.6 mph N/A   Clear
2:35 AM 60.8 °F 48.2 °F 63% 29.79 in 10.0 mi ESE 12.7 mph - N/A   Clear
2:55 AM 60.8 °F 48.2 °F 63% 29.79 in 10.0 mi ESE 13.8 mph - N/A   Clear
3:15 AM 59.0 °F 48.2 °F 67% 29.78 in 10.0 mi ESE 11.5 mph - N/A   Clear
3:35 AM 59.0 °F 48.2 °F 67% 29.78 in 10.0 mi ESE 11.5 mph - N/A   Clear
3:55 AM 59.0 °F 48.2 °F 67% 29.78 in 10.0 mi ESE 12.7 mph - N/A   Clear
4:15 AM 59.0 °F 48.2 °F 67% 29.78 in 10.0 mi ESE 12.7 mph - N/A   Clear
4:35 AM 59.0 °F 48.2 °F 67% 29.78 in 10.0 mi ESE 13.8 mph - N/A   Clear
4:55 AM 59.0 °F 48.2 °F 67% 29.77 in 10.0 mi ESE 15.0 mph - N/A   Clear
5:15 AM 59.0 °F 48.2 °F 67% 29.77 in 10.0 mi ESE 15.0 mph - N/A   Clear
5:35 AM 59.0 °F 48.2 °F 67% 29.76 in 10.0 mi ESE 16.1 mph - N/A   Clear
5:55 AM 59.0 °F 48.2 °F 67% 29.75 in 10.0 mi ESE 16.1 mph - N/A   Clear
6:15 AM 57.2 °F 48.2 °F 72% 29.75 in 10.0 mi ESE 13.8 mph - N/A   Clear
6:35 AM 57.2 °F 48.2 °F 72% 29.75 in 10.0 mi ESE 16.1 mph - N/A   Clear
6:55 AM 57.2 °F 48.2 °F 72% 29.75 in 10.0 mi ESE 15.0 mph - N/A   Clear
7:15 AM 57.2 °F 48.2 °F 72% 29.75 in 10.0 mi ESE 15.0 mph 20.7 mph N/A   Clear
7:35 AM 57.2 °F 48.2 °F 72% 29.75 in 10.0 mi ESE 13.8 mph - N/A   Clear
7:55 AM 57.2 °F 48.2 °F 72% 29.75 in 10.0 mi ESE 15.0 mph 20.7 mph N/A   Scattered Clouds
8:15 AM 59.0 °F 48.2 °F 67% 29.75 in 10.0 mi ESE 16.1 mph 27.6 mph N/A   Scattered Clouds
8:35 AM 59.0 °F 48.2 °F 67% 29.75 in 10.0 mi ESE 15.0 mph 20.7 mph N/A   Partly Cloudy
8:55 AM 59.0 °F 50.0 °F 72% 29.74 in 10.0 mi ESE 16.1 mph - N/A   Scattered Clouds
9:15 AM 60.8 °F 50.0 °F 68% 29.74 in 10.0 mi ESE 15.0 mph 21.9 mph N/A   Scattered Clouds
9:35 AM 60.8 °F 51.8 °F 72% 29.73 in 10.0 mi ESE 17.3 mph 20.7 mph N/A   Clear
9:55 AM 62.6 °F 51.8 °F 68% 29.72 in 10.0 mi ESE 18.4 mph - N/A   Clear
10:15 AM 64.4 °F 51.8 °F 64% 29.72 in 10.0 mi SE 16.1 mph - N/A   Clear
10:35 AM 66.2 °F 53.6 °F 64% 29.71 in 10.0 mi SE 19.6 mph 27.6 mph N/A   Clear
10:55 AM 69.8 °F 53.6 °F 56% 29.70 in 10.0 mi SSE 18.4 mph 31.1 mph N/A   Clear
11:15 AM 71.6 °F 53.6 °F 53% 29.69 in 10.0 mi SSE 23.0 mph 31.1 mph N/A   Clear
11:35 AM 71.6 °F 53.6 °F 53% 29.69 in 10.0 mi SSE 25.3 mph 32.2 mph N/A   Clear
11:55 AM 71.6 °F 53.6 °F 53% 29.69 in 10.0 mi SSE 19.6 mph 29.9 mph N/A   Clear
12:15 PM 73.4 °F 53.6 °F 50% 29.68 in 10.0 mi SSE 24.2 mph 28.8 mph N/A   Clear
12:35 PM 75.2 °F 53.6 °F 47% 29.69 in 10.0 mi South 24.2 mph 32.2 mph N/A   Clear
12:55 PM 75.2 °F 53.6 °F 47% 29.69 in 10.0 mi South 23.0 mph 33.4 mph N/A   Partly Cloudy
1:15 PM 75.2 °F 53.6 °F 47% 29.68 in 10.0 mi South 27.6 mph 32.2 mph N/A   Partly Cloudy
1:35 PM 78.8 °F 53.6 °F 42% 29.67 in 10.0 mi South 31.1 mph 36.8 mph N/A   Partly Cloudy
1:55 PM 77.0 °F 53.6 °F 44% 29.67 in 10.0 mi South 27.6 mph 35.7 mph N/A   Partly Cloudy
2:15 PM 75.2 °F 53.6 °F 47% 29.67 in 10.0 mi South 23.0 mph 32.2 mph N/A   Mostly Cloudy
2:35 PM 77.0 °F 53.6 °F 44% 29.68 in 10.0 mi South 21.9 mph 28.8 mph N/A   Mostly Cloudy
2:55 PM 78.8 °F 53.6 °F 42% 29.68 in 10.0 mi South 24.2 mph 31.1 mph N/A   Scattered Clouds
3:15 PM 77.0 °F 55.4 °F 47% 29.68 in 10.0 mi South 18.4 mph 29.9 mph N/A   Mostly Cloudy
3:35 PM 75.2 °F 53.6 °F 47% 29.69 in 10.0 mi South 25.3 mph 33.4 mph N/A   Mostly Cloudy
3:55 PM 75.2 °F 55.4 °F 50% 29.69 in 10.0 mi South 23.0 mph 31.1 mph N/A   Scattered Clouds
4:15 PM 75.2 °F 55.4 °F 50% 29.69 in 10.0 mi South 23.0 mph 27.6 mph N/A   Mostly Cloudy
4:35 PM 75.2 °F 55.4 °F 50% 29.70 in 10.0 mi South 16.1 mph 23.0 mph N/A   Mostly Cloudy
4:55 PM 75.2 °F 55.4 °F 50% 29.71 in 10.0 mi South 15.0 mph 19.6 mph N/A   Scattered Clouds
5:15 PM 75.2 °F 55.4 °F 50% 29.71 in 10.0 mi South 12.7 mph - N/A   Mostly Cloudy
5:35 PM 75.2 °F 55.4 °F 50% 29.72 in 10.0 mi South 12.7 mph 16.1 mph N/A   Mostly Cloudy
5:55 PM 75.2 °F 55.4 °F 50% 29.72 in 10.0 mi SSE 10.4 mph - N/A   Scattered Clouds
6:15 PM 75.2 °F 55.4 °F 50% 29.72 in 10.0 mi SSE 9.2 mph - N/A   Partly Cloudy
6:35 PM 75.2 °F 55.4 °F 50% 29.72 in 10.0 mi SSE 8.1 mph - N/A   Scattered Clouds
6:55 PM 75.2 °F 55.4 °F 50% 29.72 in 10.0 mi SSE 9.2 mph - N/A   Scattered Clouds
7:15 PM 73.4 °F 55.4 °F 53% 29.73 in 10.0 mi SSE 8.1 mph - N/A   Mostly Cloudy
7:35 PM 73.4 °F 55.4 °F 53% 29.73 in 10.0 mi SSE 6.9 mph - N/A   Mostly Cloudy
7:55 PM 73.4 °F 55.4 °F 53% 29.74 in 10.0 mi SSE 5.8 mph - N/A   Mostly Cloudy
8:15 PM 71.6 °F 55.4 °F 57% 29.74 in 10.0 mi SSE 5.8 mph - N/A   Partly Cloudy
8:35 PM 69.8 °F 55.4 °F 60% 29.75 in 10.0 mi SSE 6.9 mph - N/A   Clear
8:55 PM 71.6 °F 55.4 °F 57% 29.75 in 10.0 mi SSE 6.9 mph - N/A   Partly Cloudy
9:15 PM 69.8 °F 55.4 °F 60% 29.75 in 10.0 mi SSE 6.9 mph - N/A   Partly Cloudy
9:35 PM 69.8 °F 55.4 °F 60% 29.76 in 10.0 mi SE 8.1 mph - N/A   Mostly Cloudy
9:55 PM 69.8 °F 57.2 °F 64% 29.76 in 10.0 mi SE 9.2 mph - N/A   Mostly Cloudy
10:15 PM 69.8 °F 57.2 °F 64% 29.77 in 10.0 mi SSE 6.9 mph - N/A   Mostly Cloudy
10:35 PM 69.8 °F 57.2 °F 64% 29.78 in 10.0 mi SW 4.6 mph - N/A   Partly Cloudy
10:55 PM 69.8 °F 57.2 °F 64% 29.77 in 10.0 mi South 3.5 mph - N/A   Clear
11:15 PM 68.0 °F 55.4 °F 64% 29.79 in 10.0 mi NW 11.5 mph - N/A   Clear
11:35 PM 66.2 °F 55.4 °F 68% 29.79 in 10.0 mi WNW 8.1 mph - N/A   Clear
11:55 PM 64.4 °F 53.6 °F 68% 29.80 in 10.0 mi NW 9.2 mph - N/A   Clear